SB KEPS @ AMSAT $ORB10090.O Orbital Elements 10090.OSCAR
HR AMSAT ORBITAL ELEMENTS FOR OSCAR SATELLITES FROM WA5QGD FORT WORTH,TX March 31, 2010 Send Subscribe/unsubscribe to KEPS at http://www.amsat.org/mailman/listinfo/keps BID: ORB10090.O TO ALL RADIO AMATEURS BT
Satellite: AO-07 Catalog number: 07530 Epoch time: 10090.63101546 Element set: 740 Inclination: 101.4061 deg RA of node: 109.4965 deg Eccentricity: 0.0012177 Arg of perigee: 065.9704 deg Mean anomaly: 294.2641 deg Mean motion: 12.53578014 rev/day Decay rate: -2.7e-07 rev/day^2 Epoch rev: 61873 Checksum: 275
Satellite: FO-29 Catalog number: 24278 Epoch time: 10090.15859163 Element set: 275 Inclination: 098.5198 deg RA of node: 290.0601 deg Eccentricity: 0.0350651 Arg of perigee: 326.4368 deg Mean anomaly: 031.4987 deg Mean motion: 13.52949106 rev/day Decay rate: 1.7e-07 rev/day^2 Epoch rev: 67255 Checksum: 322
Satellite: SO-33 Catalog number: 25509 Epoch time: 10090.39677753 Element set: 680 Inclination: 031.4333 deg RA of node: 228.4154 deg Eccentricity: 0.0354317 Arg of perigee: 329.5777 deg Mean anomaly: 028.4713 deg Mean motion: 14.28296444 rev/day Decay rate: -1.8e-07 rev/day^2 Epoch rev: 59692 Checksum: 325
Satellite: RS-22 Catalog number: 27939 Epoch time: 10090.65564316 Element set: 46 Inclination: 097.9039 deg RA of node: 319.3845 deg Eccentricity: 0.0012796 Arg of perigee: 308.6046 deg Mean anomaly: 051.4014 deg Mean motion: 14.63398133 rev/day Decay rate: 1.62e-06 rev/day^2 Epoch rev: 34761 Checksum: 308
Satellite: VO-52 Catalog number: 28650 Epoch time: 10090.33912163 Element set: 468 Inclination: 097.7008 deg RA of node: 146.7804 deg Eccentricity: 0.0027555 Arg of perigee: 168.7973 deg Mean anomaly: 191.3829 deg Mean motion: 14.81712551 rev/day Decay rate: 5.20e-06 rev/day^2 Epoch rev: 26516 Checksum: 315
Satellite: SO-67 Catalog number: 35870 Epoch time: 10090.78234902 Element set: 587 Inclination: 097.3400 deg RA of node: 141.8679 deg Eccentricity: 0.0008336 Arg of perigee: 338.2473 deg Mean anomaly: 168.0253 deg Mean motion: 15.22425665 rev/day Decay rate: 9.93e-06 rev/day^2 Epoch rev: 2968 Checksum: 329
Satellite: HO-68 Catalog number: 36122 Epoch time: 10090.79586644 Element set: 170 Inclination: 100.4772 deg RA of node: 151.9856 deg Eccentricity: 0.0007566 Arg of perigee: 149.9962 deg Mean anomaly: 210.1582 deg Mean motion: 13.16280218 rev/day Decay rate: -4.5e-07 rev/day^2 Epoch rev: 1403 Checksum: 295
/EX SB KEPS @ AMSAT $ORB10090.D Orbital Elements 10090.MICROS
HR AMSAT ORBITAL ELEMENTS FOR THE MICROSATS FROM WA5QGD FORT WORTH,TX March 31, 2010 Send Subscribe/unsubscribe to KEPS at http://www.amsat.org/mailman/listinfo/keps BID: ORB10090.D TO ALL RADIO AMATEURS BT
Satellite: UO-11 Catalog number: 14781 Epoch time: 10090.80282732 Element set: 208 Inclination: 098.0642 deg RA of node: 142.2765 deg Eccentricity: 0.0010035 Arg of perigee: 125.0043 deg Mean anomaly: 235.2038 deg Mean motion: 14.79783543 rev/day Decay rate: 5.8e-07 rev/day^2 Epoch rev: 40036 Checksum: 266
Satellite: AO-16 Catalog number: 20439 Epoch time: 10090.06368101 Element set: 858 Inclination: 098.3237 deg RA of node: 051.0784 deg Eccentricity: 0.0011718 Arg of perigee: 042.0266 deg Mean anomaly: 318.1822 deg Mean motion: 14.31854414 rev/day Decay rate: 3.9e-07 rev/day^2 Epoch rev: 5420 Checksum: 270
Satellite: LO-19 Catalog number: 20442 Epoch time: 10090.42332419 Element set: 769 Inclination: 098.2848 deg RA of node: 057.5411 deg Eccentricity: 0.0012569 Arg of perigee: 036.5046 deg Mean anomaly: 323.7021 deg Mean motion: 14.32086570 rev/day Decay rate: -1.7e-07 rev/day^2 Epoch rev: 5442 Checksum: 280
Satellite: AO-27 Catalog number: 22825 Epoch time: 10090.37808825 Element set: 492 Inclination: 098.4780 deg RA of node: 040.3694 deg Eccentricity: 0.0009108 Arg of perigee: 134.3170 deg Mean anomaly: 225.8769 deg Mean motion: 14.29291784 rev/day Decay rate: 6.1e-07 rev/day^2 Epoch rev: 86093 Checksum: 323
Satellite: IO-26 Catalog number: 22826 Epoch time: 10090.03749591 Element set: 229 Inclination: 098.4718 deg RA of node: 040.6698 deg Eccentricity: 0.0009535 Arg of perigee: 130.2254 deg Mean anomaly: 229.9775 deg Mean motion: 14.29546549 rev/day Decay rate: 2.8e-07 rev/day^2 Epoch rev: 86099 Checksum: 341
Satellite: GO-32 Catalog number: 25397 Epoch time: 10089.99151310 Element set: 148 Inclination: 098.3160 deg RA of node: 101.7443 deg Eccentricity: 0.0002178 Arg of perigee: 115.1131 deg Mean anomaly: 245.0303 deg Mean motion: 14.23175002 rev/day Decay rate: 1.17e-06 rev/day^2 Epoch rev: 60892 Checksum: 255
Satellite: NO-44 Catalog number: 26931 Epoch time: 10090.40775090 Element set: 422 Inclination: 067.0512 deg RA of node: 044.3645 deg Eccentricity: 0.0006344 Arg of perigee: 263.7410 deg Mean anomaly: 096.2960 deg Mean motion: 14.29588219 rev/day Decay rate: -2.26e-06 rev/day^2 Epoch rev: 44363 Checksum: 288
Satellite: SO-50 Catalog number: 27607 Epoch time: 10089.92259065 Element set: 138 Inclination: 064.5571 deg RA of node: 234.2312 deg Eccentricity: 0.0035927 Arg of perigee: 113.7058 deg Mean anomaly: 246.7817 deg Mean motion: 14.71518708 rev/day Decay rate: 1.76e-06 rev/day^2 Epoch rev: 39086 Checksum: 318
Satellite: CO-55 Catalog number: 27844 Epoch time: 10090.20250752 Element set: 814 Inclination: 098.7124 deg RA of node: 100.2931 deg Eccentricity: 0.0010648 Arg of perigee: 039.7649 deg Mean anomaly: 320.4320 deg Mean motion: 14.20694930 rev/day Decay rate: 9.8e-07 rev/day^2 Epoch rev: 35001 Checksum: 274
Satellite: CO-57 Catalog number: 27848 Epoch time: 10090.00942843 Element set: 764 Inclination: 098.7167 deg RA of node: 099.1857 deg Eccentricity: 0.0010579 Arg of perigee: 045.1519 deg Mean anomaly: 315.0523 deg Mean motion: 14.20488735 rev/day Decay rate: 4.9e-07 rev/day^2 Epoch rev: 34994 Checksum: 336
Satellite: AO-51 Catalog number: 28375 Epoch time: 10089.52883443 Element set: 639 Inclination: 098.0597 deg RA of node: 087.5153 deg Eccentricity: 0.0084483 Arg of perigee: 336.8298 deg Mean anomaly: 022.9097 deg Mean motion: 14.40676456 rev/day Decay rate: 4.7e-07 rev/day^2 Epoch rev: 30218 Checksum: 345
Satellite: GENESAT1 Catalog number: 29655 Epoch time: 10090.52292747 Element set: 994 Inclination: 040.0193 deg RA of node: 170.6132 deg Eccentricity: 0.0005065 Arg of perigee: 121.7216 deg Mean anomaly: 238.4088 deg Mean motion: 15.79447428 rev/day Decay rate: 6.4755e-04 rev/day^2 Epoch rev: 18765 Checksum: 316
Satellite: CP3 Catalog number: 31129 Epoch time: 10090.08389430 Element set: 541 Inclination: 097.9489 deg RA of node: 133.8038 deg Eccentricity: 0.0103681 Arg of perigee: 115.8983 deg Mean anomaly: 245.2947 deg Mean motion: 14.52230564 rev/day Decay rate: 2.32e-06 rev/day^2 Epoch rev: 15652 Checksum: 300
Satellite: CO-65 Catalog number: 32785 Epoch time: 10090.63584317 Element set: 642 Inclination: 097.9035 deg RA of node: 156.6105 deg Eccentricity: 0.0015233 Arg of perigee: 172.9180 deg Mean anomaly: 187.2223 deg Mean motion: 14.81616703 rev/day Decay rate: 5.19e-06 rev/day^2 Epoch rev: 10400 Checksum: 286
Satellite: KKS-1 Catalog number: 33493 Epoch time: 10090.82560922 Element set: 344 Inclination: 098.0749 deg RA of node: 209.7024 deg Eccentricity: 0.0020713 Arg of perigee: 034.9182 deg Mean anomaly: 325.3396 deg Mean motion: 14.80917782 rev/day Decay rate: 6.81e-06 rev/day^2 Epoch rev: 6403 Checksum: 295
Satellite: SOHLA-1 Catalog number: 33496 Epoch time: 10089.92354133 Element set: 64 Inclination: 098.0498 deg RA of node: 200.0457 deg Eccentricity: 0.0007760 Arg of perigee: 092.9793 deg Mean anomaly: 267.2296 deg Mean motion: 14.69480005 rev/day Decay rate: -1.2e-07 rev/day^2 Epoch rev: 6338 Checksum: 305
/EX SB KEPS @ AMSAT $ORB10090.W Orbital Elements 10090.WEATHER
HR AMSAT ORBITAL ELEMENTS FOR WEATHER SATELLITES FROM WA5QGD FORT WORTH,TX March 31, 2010 Send Subscribe/unsubscribe to KEPS at http://www.amsat.org/mailman/listinfo/keps BID: ORB10090.W TO ALL RADIO AMATEURS BT
Satellite: NOAA-10 Catalog number: 16969 Epoch time: 10090.20568451 Element set: 10 Inclination: 098.6644 deg RA of node: 119.8803 deg Eccentricity: 0.0013245 Arg of perigee: 080.7530 deg Mean anomaly: 279.5164 deg Mean motion: 14.27410492 rev/day Decay rate: -9.4e-07 rev/day^2 Epoch rev: 22445 Checksum: 289
Satellite: NOAA-11 Catalog number: 19531 Epoch time: 10090.31266795 Element set: 25 Inclination: 098.7680 deg RA of node: 180.6637 deg Eccentricity: 0.0011989 Arg of perigee: 013.7378 deg Mean anomaly: 346.4141 deg Mean motion: 14.14918583 rev/day Decay rate: -2.2e-07 rev/day^2 Epoch rev: 11012 Checksum: 291
Satellite: NOAA-12 Catalog number: 21263 Epoch time: 10090.37664408 Element set: 510 Inclination: 098.7690 deg RA of node: 103.5372 deg Eccentricity: 0.0013039 Arg of perigee: 036.4578 deg Mean anomaly: 323.7488 deg Mean motion: 14.25625069 rev/day Decay rate: 6.8e-07 rev/day^2 Epoch rev: 98131 Checksum: 302
Satellite: MET-3/5 Catalog number: 21655 Epoch time: 10090.23613236 Element set: 774 Inclination: 082.5624 deg RA of node: 003.7089 deg Eccentricity: 0.0013350 Arg of perigee: 178.4272 deg Mean anomaly: 181.6814 deg Mean motion: 13.17023702 rev/day Decay rate: 5.1e-07 rev/day^2 Epoch rev: 89541 Checksum: 277
Satellite: MET-2/21 Catalog number: 22782 Epoch time: 10090.33742219 Element set: 735 Inclination: 082.5481 deg RA of node: 314.2170 deg Eccentricity: 0.0020826 Arg of perigee: 261.1298 deg Mean anomaly: 098.7509 deg Mean motion: 13.83643028 rev/day Decay rate: 2.3e-07 rev/day^2 Epoch rev: 83731 Checksum: 289
Satellite: OKEAN-4 Catalog number: 23317 Epoch time: 10090.11104678 Element set: 192 Inclination: 082.5373 deg RA of node: 066.7274 deg Eccentricity: 0.0023346 Arg of perigee: 135.7046 deg Mean anomaly: 224.6036 deg Mean motion: 14.82788720 rev/day Decay rate: 3.25e-06 rev/day^2 Epoch rev: 83488 Checksum: 295
